Regional Weather Roundup
Issued by NWS State College, PA

Home | Current Version | Previous Version | Graphics & Text | Print | Product List | Glossary Off
Versions: 1 2 3 4 5 6 7 8 9 10 11 12 13 14 15 16 17 18 19 20 21 22 23 24 25 26 27 28 29 30 31 32 33 34 35 36 37 38 39 40 41 42 43 44 45 46 47 48 49 50

028
ASUS41 KCTP 261503
RWRCTP

REGIONAL WEATHER ROUNDUP
NATIONAL WEATHER SERVICE STATE COLLEGE PA
1000 AM EST SUN FEB 26 2017

Note: "fair" indicates few or no clouds below 12,000 feet with no
significant weather and/or obstructions to visibility.

* = STATION THAT DOES NOT REPORT PRECIPITATION /E.G. RAIN...SNOW...ETC/
    THUNDER OR FOG.

PAZ002>004-007>009-013>016-020>023-029>032-261600-
WESTERN PENNSYLVANIA

CITY           SKY/WX    TMP DP  RH WIND       PRES   REMARKS
ERIE           CLOUDY    28  15  58 W10       30.09S
MEADVILLE      CLOUDY    24  17  74 SW12      30.07R WCI  13
FRANKLIN*      CLOUDY    25  16  68 W10       30.09R WCI  15
NEW CASTLE     FLURRIES  26  18  71 W9        30.14R
BEAVER COUNTY  FLURRIES  27  16  63 W10G17    30.13R
BUTLER*        CLOUDY    27  12  54 W8G16     30.13R
PITTSBURGH INT FLURRIES  28  20  71 W13       30.13R
PITTSBURGH     LGT SNOW  27  19  72 W9        30.12R
INDIANA*       CLOUDY    28  21  74 NW10      30.11S
LATROBE        LGT SNOW  28  19  69 W14       30.13R
WASHINGTON CO* CLOUDY    30  14  51 W12       30.15R
$$

PAZ004>006-010>012-017>019-024>028-033>037-041-042-045-046-049>053-261600-
CENTRAL PENNSYLVANIA

CITY           SKY/WX    TMP DP  RH WIND       PRES   REMARKS
BRADFORD       FLURRIES  22  15  75 W10       29.99S WCI  11
DUBOIS         LGT SNOW  23  14  68 W10       30.04R WCI  12
CLEARFIELD       N/A    N/A N/A N/A MISG      30.06R
JOHNSTOWN      LGT SNOW  23  20  88 W12G22    30.01R FOG     WCI  12
ALTOONA        CLOUDY    30  19  63 W14       30.06R
STATE COLLEGE  PTSUNNY   30  14  51 W15G21    30.05R
WILLIAMSPORT   CLOUDY    32  19  58 W15       30.06R
SELINSGROVE    CLOUDY    33  16  49 W10G21    30.09R
FT INDIANTOWN  PTSUNNY   35  11  37 W16G32    30.08R
CAPITAL CITY   PTSUNNY   37  12  35 NW13G23   30.10R
HARRISBURG     PTSUNNY   35  14  42 NW17      30.10R
YORK           CLOUDY    34  17  50 NW12G22   30.10R
$$

PAZ038>040-043-044-047-048-054-055-060>062-067>071-261600-
EASTERN PENNSYLVANIA

CITY           SKY/WX    TMP DP  RH WIND       PRES   REMARKS
SCRANTON       CLOUDY    32  17  54 NW18      30.01R
MOUNT POCONO   CLOUDY    25  14  63 NW17G24   29.93R WCI  12
ALLENTOWN      CLOUDY    36  17  46 W15G24    30.03R
QUAKERTOWN*    CLOUDY    32  16  51 NW13G22   30.04R
READING        PTSUNNY   35  17  47 W16G28    30.06R
LANCASTER      PTSUNNY   34  15  46 NW20G28   30.08R
COATESVILLE    PTSUNNY   34  14  44 NW21      30.07R
POTTSTOWN      PTSUNNY   34  15  46 NW14G21   30.07R
BLUE BELL      CLOUDY    34  18  51 W14G23    30.05R
DOYLESTOWN     CLOUDY    36  19  50 W10G22    30.03R
WILLOW GROVE   NOT AVBL
NORTH PHILA    CLOUDY    38  18  44 W16G23    30.07R
PHILADELPHIA   PTSUNNY   38  14  37 W22G30    30.08R
$$




USA.gov is the U.S. government's official web portal to all federal, state and local government web resources and services.